STARLINK-11438, 62888

Orbit data source: Space-Track

STARLINK-11438, 62888 is a payload satellite owned by SpaceX/Seattle (US) in LEO that was launched on Tue, 04 Feb 2025 UTC via an FALCON 9 launch vehicle from the Air Force Eastern Test Range (AFETR). Payload-class satellites include a variety of spacecraft equipped with specific instruments for various scientific and technological missions. These include communications satellites like Starlink; space stations such as the ISS; scientific satellites like the Hubble; Earth observation satellites from companies like Planet Labs, Umbra, and HawkEye 360; GPS; miniature CubeSats for education and research; and military/defense satellites.

Loading next visibility...
Identifier
62888, 2025-024K
Orbit
LEO
Country
Flag of USUS
Related business
Manufacturer
SpaceX/Seattle
Mission
Operational Commercial Communications
Bus & Motor
STARLINK V2MD, Unknown motor
Mass
960 kg wet, ~910 kg dry
Launch date (UTC)
2025-02-04 (1 year ago)
Launch vehicle
FALCON 9
Launch site
Air Force Eastern Test Range (AFETR)
Object type
Payload
Rocket body
Debris
Shape & HBR
Box + 2 Pan, 18.1 m
Radar Cross Section
36.964 m², Large (>1 m²)

Expand to show TLE details & history
Last TLE update: 17 hours ago

TLE from 17 hours ago
0 STARLINK-11438
1 62888U 25024K   26129.81725125  .00171818  00000-0  13130-2 0  9992
2 62888  43.0009 172.7072 0001207 278.2759  81.7972 15.70876046 73082
Epoch: 2026-05-09T19:36Z
TLE epoch observation values (Epoch: 2026-05-09T19:36:50.508Z)
Latitude
0.00002°
Longitude
10.86753°
Altitude
356.047 km
Speed
7.697 km/s
True Right ascension
11h 30m 49s
True Declination
0° 00' 00"
Sunlit
Object was in full shadow at epoch
Visualization orbit readout
Latitude
Unknown
Longitude
Unknown
Altitude
Unknown
Speed
Unknown
Apparent Right ascension
Unknown
Apparent Declination
Unknown
Sunlit
N/A
Visualization observer readout
Local Sidereal Time
21:11:23
Azimuth
Unknown
Elevation
Unknown
Doppler factor
Unknown
Orbital elements
Apogee altitude
359.187 km
Perigee altitude
357.56 km
Semi-major axis
6,736.51 km
Eccentricity
0.00012
Inclination
43.0009°
RAAN
172.7072°
Arg. of periapsis
278.2759°
True anomaly
81.81089°
Mean anomaly
81.7972°
Eccentric anomaly
81.80404°
Mean motion
3.92546 °/min
Orbital period
91.71 mins
BSTAR
0.001313
Loading maneuver chart data...
Computing Atmospheric mass density...
Loading historical data...
Loading historical data...
Loading historical data...
Loading historical data...
Loading historical data...
Loading historical data...
Loading historical data...

Documentation

Showing up to 5 results
|